Regional Weather Roundup
Issued by NWS

Home | Current Version | Previous Version | Graphics & Text | Print | Product List | Glossary Off
Versions: 1 2 3 4 5 6 7 8 9 10 11 12 13 14 15 16 17 18 19 20 21 22 23 24 25 26 27 28 29 30 31 32 33 34 35 36 37 38 39 40 41 42 43 44 45 46 47 48 49 50

000
ASUS43 KMKX 180921
RWRWI

WISCONSIN REGIONAL WEATHER ROUNDUP
NATIONAL WEATHER SERVICE MILWAUKEE/SULLIVAN WI
300 AM CST THU DEC 18 2014

NOTE: "FAIR" INDICATES FEW OR NO CLOUDS BELOW 12,000 FEET WITH NO
SIGNIFICANT WEATHER AND/OR OBSTRUCTIONS TO VISIBILITY.

WIZ001-002-006>008-014>016-023>028-181000-
NORTHWEST WISCONSIN

CITY           SKY/WX    TMP DP  RH WIND       PRES   REMARKS
SUPERIOR ARPT  CLOUDY    19  17  90 CALM      30.34F
ASHLAND        CLOUDY    23  20  88 CALM      30.33S
HAYWARD        CLOUDY    20  15  81 N3        30.29S
SIREN          CLOUDY    18  14  87 CALM      30.33R
CUMBERLAND     CLOUDY    19  16  86 CALM      30.29R
RICE LAKE      CLOUDY    22  17  83 N3        30.31S
CHETEK         CLOUDY    20  17  85 CALM      30.30S
LADYSMITH      CLOUDY    22  19  88 N3        30.29S
EAU CLAIRE     CLOUDY    21  16  81 CALM      30.30R
MENOMONIE      CLOUDY    21  17  83 SW3       30.32R
NEW RICHMOND   CLOUDY    18  16  92 CALM      30.32R
OSCEOLA        CLOUDY    18  15  89 CALM      30.35S
$$

WIZ003>005-009-010-017-018-181000-
NORTH CENTRAL WISCONSIN

CITY           SKY/WX    TMP DP  RH WIND       PRES   REMARKS
MANITOWISH WTR CLOUDY    20  18  92 NE6       30.25S WCI  13
ARBOR VITAE    CLOUDY    22  19  88 CALM      30.25S
WOODRUFF       CLOUDY    22  19  88 CALM      30.25S
RHINELANDER    CLOUDY    21  18  88 N6        30.24S WCI  13
EAGLE RIVER    CLOUDY    21  19  95 N5        30.24S WCI  14
LAND O LAKES   CLOUDY    21  19  91 N3        30.25S
PHILLIPS       CLOUDY    20  18  91 NE7       30.26S WCI  11
TOMAHAWK       CLOUDY    22  19  88 CALM      30.25F
MEDFORD        CLOUDY    21  18  89 NE8       30.23F WCI  11
MERRILL        CLOUDY    23  19  87 N6        30.25F WCI  15
$$

WIZ029-030-035-036-043>047-181000-
CENTRAL WISCONSIN

CITY           SKY/WX    TMP DP  RH WIND       PRES   REMARKS
WAUSAU         CLOUDY    24  19  81 N8        30.24F WCI  15
MOSINEE        CLOUDY    23  21  93 N6        30.25F WCI  16
MARSHFIELD     CLOUDY    21  17  84 NW8       30.25S WCI  11
STEVENS POINT  CLOUDY    21  18  86 CALM      30.25F
WAUPACA        CLOUDY    26  19  77 CALM      30.26F
WAUTOMA        CLOUDY    22  17  81 NW5       30.27S WCI  16
WISC RAPIDS    CLOUDY    21  15  78 W3        30.28S
CAMP DOUGLAS   CLOUDY    20  19  95 W5        30.28S WCI  14
$$

WIZ011>013-019>022-031-037>040-048>050-181000-
NORTHEAST WISCONSIN

CITY           SKY/WX    TMP DP  RH WIND       PRES   REMARKS
ANTIGO         CLOUDY    22  19  91 N8        30.23F WCI  12
SHAWANO        CLOUDY    28  23  80 N6        30.26F WCI  22
OCONTO         CLOUDY    27  23  84 N5        30.27S WCI  22
STURGEON BAY   CLOUDY    27  19  74 N10       30.26F WCI  17
GREEN BAY      CLOUDY    27  22  81 N6        30.26F WCI  20
MANITOWOC      CLOUDY    26  23  88 NW8       30.25F WCI  18
APPLETON       CLOUDY    25  19  80 NW8       30.25F WCI  16
CLINTONVILLE   CLOUDY    27  21  80 NW6       30.26F WCI  20
OSHKOSH        CLOUDY    24  17  74 NW7       30.25F WCI  16
$$

WIZ032>034-041-042-053>061-181000-
SOUTHWEST WISCONSIN

CITY           SKY/WX    TMP DP  RH WIND       PRES   REMARKS
LA CROSSE      CLOUDY    20  13  74 NW3       30.32S
SPARTA         CLOUDY    20  14  77 CALM      30.31R
VIROQUA        PTCLDY    15  13  91 CALM      30.25F
BOSCOBEL       CLEAR     13   9  84 CALM      30.31S
PRAIRIE DU CHI CLEAR     16  13  87 CALM      30.31S
PLATTEVILLE    CLEAR     16  14  90 CALM      30.28S
$$

WIZ056-057-062-063-064-067-068-181000-
SOUTH CENTRAL WISCONSIN

CITY           SKY/WX    TMP DP  RH WIND       PRES   REMARKS
REEDSBURG      CLOUDY    19  16  86 CALM      30.27F
BARABOO/DELLS  CLOUDY    20  16  84 CALM      30.27S
LONE ROCK      CLEAR     19  11  70 SW3       30.29F
MINERAL POINT  CLEAR     18  14  86 CALM      30.26S
MADISON        CLEAR     16  12  84 CALM      30.26F
MIDDLETON      CLEAR     18  14  82 W5        30.27F WCI  11
WATERTOWN      CLOUDY    19  16  87 NW5       30.26F WCI  12
MONROE         CLEAR     18  16  93 N5        30.25S WCI  11
JANESVILLE     CLEAR     19  14  79 CALM      30.27S
$$

WIZ051-052-058>065-066-070>072-181000-
SOUTHEAST WISCONSIN

CITY           SKY/WX    TMP DP  RH WIND       PRES   REMARKS
MILWAUKEE      CLEAR     20  13  74 W9        30.26F WCI   9
WAUKESHA       CLEAR     16  14  93 W6        30.27F WCI   7
MILWAUKEE/TIMM PTCLDY    19  14  79 W6        30.27F WCI  11
RACINE         CLEAR     18  13  80 CALM      30.28F
BURLINGTON     CLEAR     17  13  86 CALM      30.26F
KENOSHA        CLEAR     18  14  84 NW5       30.26F WCI  11
FOND DU LAC    CLOUDY    24  17  74 CALM      30.26F
SHEBOYGAN      CLOUDY    24  18  77 NW6       30.25F WCI  17
WEST BEND      CLOUDY    23  19  86 W3        30.25S
JUNEAU         CLOUDY    21  17  83 CALM      30.27S
$$

LSZ147-162-181000-
LAKE SUPERIOR

STATION/POSITION TIME  TEMP    WIND        PRES    WAVE
                       AIR SEA DIR/SP/G            HT/PER
                 (UTC) (F)     (DEG/KT/KT) (MB)    (FT/S)
DEVILS ISLAND    0900   26      80/  3/  5 1028.7R
PORT WING        0840   24     320/  2/  3 1027.4R
SAXON HARBOR     0800   25        CALM     1026.8R
$$

LMZ867-665-643>646-181000-
LAKE MICHIGAN

STATION/POSITION TIME  TEMP    WIND        PRES    WAVE
                       AIR SEA DIR/SP/G            HT/PER
                 (UTC) (F)     (DEG/KT/KT) (MB)    (FT/S)
CHAMBERS ISLAND  0800   29     340/ 13/ 18 1024.4R
NORTHPORT PIER   0800   29     360/ 15/ 21 1023.7R
SISTER BAY       0813          360/ 23/ 28   N/A
ALGOMA LAKESHORE 0814          330/  6/  9   N/A
KEWAUNEE LAKESHO 0800   28     300/  5/  7 1023.8R
SHEBOYGAN LAKESH 0900   25 34  290/  8/  9 1025.6F
PORT WASHINGTON  0800   22     300/  5/  9 1025.4S
MILWAUKEE LAKESH 0900   21     300/ 11/ 13   N/A
KENOSHA   LAKESH 0900   20     320/  5/ 10 1024.7F
$$

TC  - TEMPERATURE IN CELSIUS
VSB - VISIBILITY IN STATUTE MILES
WCI - WIND CHILL INDEX
HX  - HEAT INDEX



USA.gov is the U.S. government's official web portal to all federal, state and local government web resources and services.